Location: Colovrex
(46.2535°N, 6.1371°E)
Time: 08:41:48
(UTC+00:00)

Daily predictions for brighter satellites

Satellite Brightness Start Highest point End
(mag) Time Altitude Azimuth Time Altitude Azimuth Time Altitude Azimuth
Cosmos 1833 Rocket 2.8 19:47:27 10° NNW 19:53:05 80° WSW 19:58:41 10° SSE
Tsikada Rocket 4.4 19:47:16 10° SSW 19:53:25 71° W 19:59:35 10° N
Cosmos 1943 Rocket 3.9 19:52:10 10° ESE 19:54:28 13° E 19:56:46 10° ENE
STARLINK-1109 3.7 19:50:34 10° WNW 19:54:43 80° SSW 19:58:51 10° SE
STARLINK-1246 3.6 19:53:15 10° WSW 19:57:24 90° NNW 20:01:34 10° ENE
STARLINK-1091 3.7 19:55:31 10° WNW 19:59:40 74° SSW 20:03:47 10° SE
Cosmos 2082 Rocket 2.3 19:54:00 10° NNW 19:59:45 74° ENE 20:05:26 10° SSE
Cosmos 1420 Rocket 4.0 19:54:45 10° SSW 19:59:57 86° ESE 20:05:10 10° NNE
Cosmos 1452 Rocket 3.6 19:55:03 10° S 20:00:15 61° ESE 20:05:28 10° NNE
Cosmos 332 Rocket 4.1 19:55:53 10° S 20:00:34 47° ESE 20:05:16 10° NNE
BREEZE-M DEB 3.8 19:59:10 10° S 20:00:38 15° SE 20:02:34 10° E
DMSP B5D2-2 4.3 19:55:46 10° NNE 20:01:05 81° WNW 20:06:21 10° SSW
STARLINK-1224 3.7 19:58:14 10° WSW 20:02:23 84° NNW 20:06:33 10° ENE
Intercosmos 24 4.0 19:59:19 10° N 20:02:48 51° ENE 20:06:33 10° SSE
STARLINK-1072 3.8 20:00:32 10° WNW 20:04:40 68° SW 20:08:46 10° SE
MOS 1 Rocket 4.1 20:02:28 10° N 20:06:44 51° WNW 20:10:53 10° SSW
Cosmos 1461 3.2 20:02:53 10° S 20:06:47 43° ESE 20:10:55 10° NE
STARLINK-1099 4.5 20:02:49 10° NW 20:06:50 47° NNE 20:10:51 10° E
STARLINK-1225 3.8 20:03:13 10° WSW 20:07:23 79° NNW 20:11:32 10° ENE
Cosmos 1544 4.4 20:04:07 10° NNW 20:07:32 39° W 20:10:53 10° SSW
Okean 3 3.5 20:04:52 10° S 20:09:10 89° E 20:13:30 10° N
STARLINK-1096 3.8 20:05:31 10° WNW 20:09:38 63° SW 20:13:39 10° SE
Cosmos 2369 Rocket 4.0 20:08:05 10° ESE 20:10:22 12° E 20:12:38 10° ENE
STARLINK-1104 4.4 20:07:47 10° NW 20:11:50 49° NNE 20:15:52 10° E
STARLINK-1230 3.9 20:08:12 10° WSW 20:12:20 75° NNW 20:16:30 10° ENE
NOSS 2-2 (C) 4.3 20:10:20 10° S 20:13:10 22° ESE 20:16:08 10° ENE
STARLINK-1079 3.9 20:10:31 10° WNW 20:14:36 58° SW 20:18:26 11° SE
STARLINK-1144 4.3 20:12:46 10° NW 20:16:50 52° NNE 20:20:53 10° E
Cosmos 2221 Rocket 3.7 20:12:31 10° S 20:17:03 83° W 20:21:38 10° N
STARLINK-1243 4.0 20:13:13 10° WSW 20:17:20 70° NNW 20:21:30 10° ENE
SL-4 R/B 2.8 20:14:45 10° NW 20:17:28 29° WSW 20:19:59 10° S
SPOT 5 4.2 20:14:24 10° SE 20:18:57 31° ENE 20:23:35 10° N
STARLINK-1116 4.0 20:15:30 10° WNW 20:19:34 54° SW 20:23:13 12° SE
NOSS 8 (F) 4.1 20:17:07 10° SSW 20:20:23 75° SE 20:23:25 10° NE
Meteor 1-13 Rocket 4.2 20:15:04 10° S 20:20:40 76° E 20:26:26 10° NNE
STARLINK-1103 4.2 20:17:44 10° NW 20:21:49 54° NNE 20:25:53 10° ESE
STARLINK-1236 4.1 20:18:12 10° WSW 20:22:19 66° NNW 20:26:27 10° ENE
ERS-1 Rocket 3.8 20:19:40 11° SE 20:24:04 37° ENE 20:28:40 10° N
STARLINK-1101 4.1 20:22:43 10° NW 20:26:49 57° NNE 20:30:54 10° ESE
Cosmos 1066 Rocket 4.5 20:23:16 10° SSE 20:28:23 46° E 20:33:28 10° NNE
STARLINK-1094 4.2 20:25:31 10° WNW 20:29:29 46° SW 20:32:47 14° SSE
USA 245 2.5 20:27:55 14° SSE 20:30:24 60° ENE 20:32:56 10° N
USA 238 DEB 4.5 20:24:22 10° NW 20:31:19 49° NE 20:38:25 10° ESE
USA 238 4.5 20:24:28 10° NNW 20:31:24 49° NE 20:38:32 10° ESE
STARLINK-1102 4.0 20:27:42 10° WNW 20:31:49 61° NNE 20:35:48 11° ESE
STARLINK-1269 4.3 20:28:13 10° WSW 20:32:18 59° NNW 20:36:25 10° NE
Cosmos 2278 Rocket 3.4 20:27:45 10° SW 20:33:12 47° WNW 20:38:41 10° NNE
TSX-5 4.3 20:27:40 10° SSW 20:33:23 74° ESE 20:37:47 10° NNE
Resurs 01 Rocket 2.5 20:29:37 10° S 20:33:54 48° W 20:38:14 10° NNW
Okean 1 Rocket 3.4 20:30:01 10° N 20:34:22 50° ENE 20:37:54 15° SSE
STARLINK-1117 4.3 20:30:31 10° WNW 20:34:26 42° SW 20:37:34 15° SSE
Cosmos 1805 4.4 20:31:07 10° NNE 20:34:34 29° ENE 20:37:07 15° SE
Nadezhda 4 Rocket 4.2 20:28:58 10° SSE 20:34:51 51° E 20:40:44 10° NNE
Cosmos 1741 Rocket 4.1 20:29:43 10° NNW 20:34:58 82° WSW 20:39:48 12° SSE
GPS 2-04 Rocket1 4.3 20:32:56 10° SW 20:35:00 15° S 20:35:57 14° SSE
Okean 2 Rocket 3.8 20:30:46 10° NNW 20:35:04 51° W 20:39:18 10° S
STARLINK-1111 3.9 20:32:40 10° WNW 20:36:48 64° NNE 20:40:34 12° ESE
STARLINK-1200 4.4 20:33:12 10° WSW 20:37:17 56° NNW 20:41:23 10° NE
MetOp-B 4.3 20:32:23 10° S 20:37:44 78° WSW 20:43:07 10° NNW
STARLINK-1078 4.5 20:35:32 10° WNW 20:39:23 39° SW 20:42:21 16° SSE
SL-8 R/B 3.7 20:36:56 10° WNW 20:41:46 89° N 20:46:16 12° ESE
STARLINK-1073 3.8 20:37:39 10° WNW 20:41:48 68° NNE 20:45:22 14° ESE
Cosmos 2279 Rocket 4.3 20:36:55 10° NNW 20:43:06 68° W 20:49:15 10° S
Cosmos 1850 Rocket 4.3 20:39:13 10° NNW 20:44:31 66° WSW 20:49:25 12° S
Cosmos 371 Rocket 4.2 20:40:21 10° SW 20:45:05 53° WNW 20:49:53 10° NNE
ATLAS 3B CENTAUR R/B 4.2 20:35:25 10° SW 20:46:14 25° S 20:50:57 15° SSE
SL-4 R/B 3.5 20:43:01 10° S 20:46:41 23° SE 20:50:25 10° E
STARLINK-1121 3.8 20:42:37 10° WNW 20:46:47 73° NNE 20:50:08 15° ESE
Cosmos 1110 Rocket 4.0 20:42:04 10° S 20:47:10 62° ESE 20:52:17 10° NNE
Terra 2.7 20:44:22 15° SE 20:47:43 36° ENE 20:52:04 10° N
Spot 2 Rocket 3.6 20:44:03 11° S 20:48:53 75° WSW 20:53:57 10° NNW
SPOT 1/Viking Rocket 3.5 20:45:17 14° SSE 20:49:45 82° ENE 20:54:55 10° NNW
Cosmos 2151 Rocket 4.3 20:45:24 10° NNW 20:49:49 52° W 20:54:12 10° S
Abrixas rocket 1.9 20:47:21 10° WNW 20:50:16 63° SSW 20:51:50 24° SE
CARTOSAT-1 3.8 20:47:49 18° SE 20:50:54 55° ENE 20:55:09 10° N
NOSS 8 (H) 4.1 20:48:22 10° SW 20:51:33 86° NW 20:54:37 10° NE
STARLINK-1106 3.7 20:47:37 10° WNW 20:51:47 77° NNE 20:54:56 17° ESE
STARLINK-1112 3.6 20:52:34 10° WNW 20:56:44 82° NNE 20:59:41 19° ESE
Aureole 2 4.2 20:55:55 10° NNW 20:59:01 70° WSW 21:00:36 25° S
STARLINK-1128 3.6 20:57:32 10° WNW 21:01:43 88° NE 21:04:28 20° ESE
Cosmos 1331 Rocket 3.9 20:58:48 10° SSW 21:03:57 78° ESE 21:09:09 10° NNE
deb Kosmos-1763 4.4 21:01:12 10° NNW 21:04:44 56° WSW 21:06:57 21° S
Aureole 2 Rocket 3.1 21:01:48 10° SW 21:04:49 47° WNW 21:07:43 10° N
STARLINK-1113 3.5 21:02:32 10° WNW 21:06:42 87° SSW 21:09:15 23° ESE
Cosmos 1733 3.7 21:04:05 10° N 21:07:45 44° ENE 21:09:32 25° SE
Cosmos 1437 Rocket 4.1 21:06:09 10° SW 21:09:42 38° WNW 21:13:18 10° N
STARLINK-1119 3.5 21:07:32 10° WNW 21:11:42 81° SSW 21:14:04 25° SE
Cosmos 1378 3.0 21:09:41 20° S 21:12:08 78° E 21:15:52 10° NNE
Cosmos 1302 Rocket 4.2 21:10:14 17° S 21:14:05 51° ESE 21:19:12 10° NNE
Cosmos 1271 Rocket 4.5 21:14:22 17° ESE 21:15:03 18° E 21:17:42 10° NE
USA 215 4.5 21:10:04 10° E 21:16:02 39° NNE 21:22:00 10° NW
ISS -1.4 21:14:29 10° WSW 21:16:08 13° SW 21:17:02 12° SSW
Cosmos 1242 Rocket 3.9 21:15:26 22° ESE 21:16:09 24° E 21:19:09 10° NE
Cosmos 304 Rocket 4.5 21:11:47 10° SW 21:16:28 55° WNW 21:21:12 10° NNE
STARLINK-1114 3.6 21:12:30 10° WNW 21:16:39 76° SW 21:18:49 27° SE
MTI 4.4 21:15:29 10° NNE 21:18:25 36° E 21:18:58 33° SE
Lacrosse 5 3.7 21:15:33 10° WNW 21:19:06 19° WSW 21:22:07 12° SSW
Cosmos 1092 Rocket 3.9 21:15:31 17° S 21:20:20 71° E 21:26:28 10° NNE
NOSS 2-2 (D) 3.3 21:17:49 10° SW 21:21:21 76° NW 21:25:22 10° NE
STARLINK-1130 (DARKSAT) 3.6 21:17:29 10° WNW 21:21:37 70° SW 21:23:37 29° SE
CENTAUR R/B 3.5 21:16:09 10° NW 21:23:59 60° NE 21:31:08 16° ESE
Cosmos 1707 4.5 21:24:35 18° E 21:25:10 18° E 21:27:51 10° NE
STARLINK-1084 3.6 21:22:29 10° WNW 21:26:36 65° SW 21:28:24 31° SE
ATLAS 3B R/B 4.0 21:20:51 10° NNW 21:26:57 34° NE 21:33:13 10° E
SL-27 R/B 2.9 21:24:43 10° NNW 21:28:15 52° ENE 21:29:28 34° ESE
NOSS 3-2 (C) 4.2 21:21:51 10° NW 21:29:18 68° NE 21:35:37 19° SE
Cosmos 1766 3.4 21:26:48 10° NNW 21:30:47 75° W 21:32:47 28° S
STARLINK-1098 3.7 21:27:28 10° WNW 21:31:34 60° SW 21:33:11 33° SSE
Cosmos 1726 4.4 21:29:41 10° NE 21:31:41 14° ENE 21:32:50 12° E
Cosmos 2195 Rocket 4.5 21:30:46 19° S 21:35:26 79° E 21:41:43 10° N
STARLINK-1123 3.8 21:32:27 10° WNW 21:36:31 55° SW 21:37:57 35° SSE
Cosmos 1943 Rocket 2.1 21:31:46 10° SSW 21:37:16 84° ESE 21:42:55 10° NNE
NOSS 2-2 (E) 4.5 21:35:19 10° WSW 21:38:46 43° NW 21:42:46 10° NNE
NOSS 3-4 (A) 4.0 21:36:32 26° SSE 21:38:48 35° ESE 21:44:21 10° NE
NOSS 3-4 (C) 4.0 21:36:40 26° SSE 21:38:54 34° ESE 21:44:26 10° NE
STARLINK-1097 3.9 21:37:28 10° WNW 21:41:30 51° SW 21:42:45 37° SSE
Cosmos 2082 Rocket 4.3 21:39:23 10° WNW 21:43:10 18° W 21:46:55 10° SW
SeaSat 1 3.4 21:39:32 10° NE 21:43:45 28° ESE 21:44:35 26° SE
EO 1 Del DPAF 4.3 21:40:57 10° NE 21:44:12 27° E 21:44:29 27° ESE
STARLINK-1099 4.0 21:42:28 10° WNW 21:46:27 47° SW 21:47:31 37° S
Cosmos 1975 Rocket 3.1 21:44:36 25° SSW 21:47:07 80° W 21:51:34 10° N
STARLINK-1212 4.3 21:46:12 10° NW 21:49:07 36° NNE 21:50:47 20° ENE
STARLINK-1105 4.2 21:46:40 10° NW 21:49:35 36° NNE 21:51:13 20° ENE
STARLINK-1247 4.2 21:47:32 10° NW 21:50:29 37° NNE 21:52:06 21° ENE
Cosmos 292 Rocket 3.8 21:48:20 30° S 21:50:38 65° ESE 21:55:28 10° NNE
STARLINK-1227 4.2 21:48:02 10° NW 21:50:58 37° NNE 21:52:32 21° ENE
BREEZE-M DEB (TANK) 3.8 21:35:13 10° WSW 21:51:00 86° NNW 21:54:57 10° ENE
STARLINK-1104 4.1 21:47:28 10° WNW 21:51:24 43° SW 21:52:18 37° S
STARLINK-1226 4.2 21:48:53 10° NW 21:51:50 37° NNE 21:53:23 22° ENE
BREEZE-M DEB (TANK) 3.5 21:48:08 10° WNW 21:52:07 55° N 21:55:49 10° E
STARLINK-1215 4.2 21:49:47 10° NW 21:52:44 38° NNE 21:54:16 22° ENE
Cosmos 2369 Rocket 2.1 21:49:04 17° SSW 21:53:27 82° ESE 21:59:08 10° NNE
STARLINK-1217 4.1 21:51:36 10° NW 21:54:34 39° NNE 21:56:00 23° ENE
S3M 4.4 21:49:07 10° N 21:55:05 49° ENE 21:58:11 27° SE
STARLINK-1229 4.1 21:52:31 10° NW 21:55:29 39° NNE 21:56:54 24° ENE
STARLINK-1144 4.2 21:52:29 10° WNW 21:56:22 40° SW 21:57:05 36° SSW
STARLINK-1270 4.1 21:53:23 10° NW 21:56:22 39° NNE 21:57:45 24° ENE
SPOT 5 4.0 21:53:31 20° SSW 21:56:50 42° W 22:01:54 10° NNW
STARLINK-1189 4.0 21:55:11 10° NW 21:58:10 40° NNE 21:59:28 26° ENE
Aureole 3 Rocket 4.4 21:52:34 10° N 21:58:52 79° E 22:03:54 27° SSE
STARLINK-1188 4.0 21:56:06 10° NW 21:59:05 41° NNE 22:00:22 26° ENE
ATLAS CENTAUR R/B 2.4 21:59:35 30° ESE 21:59:35 30° ESE 22:03:02 10° NE
STARLINK-1187 3.8 21:57:11 10° NW 22:00:11 44° NNE 22:01:14 31° ENE
STARLINK-1103 4.3 21:57:29 10° WNW 22:01:19 37° SW 22:01:51 35° SSW
Cosmos 1340 Rocket 4.1 21:57:51 10° N 22:01:25 28° ENE 22:02:31 25° E
STARLINK-1191 4.0 21:58:32 10° NW 22:01:31 42° NNE 22:02:39 28° ENE
STARLINK-1221 3.9 21:59:29 10° NW 22:02:28 42° NNE 22:03:35 29° ENE
ERS-1 Rocket 4.4 21:59:40 16° SSW 22:02:54 31° W 22:07:21 10° NNW
STARLINK-1222 3.9 22:00:20 10° NW 22:03:19 43° NNE 22:04:23 30° ENE
Cosmos 1025 Rocket 3.2 22:02:57 41° SE 22:04:00 52° E 22:08:12 10° NNE
STARLINK-1214 3.9 22:01:14 10° NW 22:04:14 43° NNE 22:05:15 31° ENE
Okean 2 4.3 22:02:00 20° SW 22:04:33 44° WNW 22:08:33 10° N
Cosmos 2026 Rocket 4.1 22:00:23 21° SSW 22:04:48 75° W 22:11:12 10° N
EXPRESS MD2 4.4 22:01:18 10° W 22:05:08 66° N 22:13:07 10° ENE
Thor Agena Rocket 3.7 21:59:57 10° NNE 22:05:11 57° ESE 22:07:12 35° SSE
STARLINK-1101 4.4 22:02:30 10° WNW 22:06:15 34° SW 22:06:38 33° SSW
ATLAS 2AS CENTAUR R/B 3.1 22:00:30 17° SSW 22:06:48 63° ESE 22:14:37 10° NE
Cosmos 1656 Rocket 3.8 22:04:50 33° S 22:07:07 55° ESE 22:12:34 10° NE
BREEZE M DEB (TANK) 2.9 22:04:08 10° W 22:07:30 48° NNW 22:08:33 24° NE
Cosmos 1553 Rocket 3.9 22:02:20 10° N 22:08:41 81° E 22:11:43 32° SSE
BREEZE-M DEB (TANK) 4.0 21:55:58 10° WNW 22:09:37 84° SSW 22:11:56 29° ESE
Cosmos 1953 3.0 22:06:04 10° N 22:09:52 40° ENE 22:10:41 35° ESE
STARLINK-1228 3.5 22:06:39 10° NW 22:10:07 63° NNE 22:11:08 41° E
NOSS 3-2 (A) 4.3 22:03:10 10° NW 22:10:36 59° WSW 22:15:10 28° S
Cosmos 1470 2.6 22:07:06 10° N 22:10:59 85° W 22:11:51 53° S
APEX 4.2 22:06:47 19° SSW 22:11:38 85° ESE 22:17:02 10° NNE
STARLINK-1235 3.4 22:09:22 10° NW 22:12:35 60° NNE 22:13:12 48° ENE
Cosmos 2292 Rocket 4.4 22:13:24 26° E 22:13:24 26° E 22:16:03 10° NE
Cosmos 968 Rocket 3.4 22:10:26 10° NNW 22:15:37 81° WSW 22:17:31 39° SSE
Cosmos 1455 Rocket 3.7 22:13:41 10° NNW 22:17:50 45° W 22:19:25 31° SW
Cosmos 1655 Rocket 4.1 22:15:01 33° SSE 22:17:51 64° E 22:24:04 10° NNE
SL-4 R/B 3.4 22:20:18 14° NE 22:20:18 14° NE 22:20:59 10° NNE
ATLAS 5 CENTAUR R/B 1.6 22:21:46 58° SE 22:21:49 59° SE 22:24:14 10° NE
USA 238 DEB 4.3 22:15:28 10° NW 22:22:21 49° WSW 22:25:51 29° S
USA 238 4.3 22:15:33 10° NW 22:22:28 49° WSW 22:25:58 29° S
Cosmos 1758 3.4 22:20:26 10° NNW 22:24:29 70° W 22:25:25 50° SSW
Terra 3.3 22:23:15 19° SW 22:25:31 28° W 22:29:38 10° NW
SL-4 R/B 2.3 22:21:08 10° WSW 22:25:57 86° SSE 22:30:49 10° ENE
Cosmos 2228 4.4 22:23:54 10° NNE 22:27:31 27° ENE 22:28:36 24° E
STARLINK-1234 2.9 22:27:06 10° WNW 22:30:16 81° NNW 22:30:16 81° NNW
In-Cosmos 22 4.3 22:30:05 40° SSE 22:31:41 56° E 22:36:51 10° NNE
Cosmos 1503 Rocket 4.0 22:30:27 10° NNW 22:35:46 76° WSW 22:37:35 42° S
Cosmos 2266 Rocket 4.0 22:33:43 37° SSE 22:36:08 65° E 22:42:06 10° NNE
STARLINK-1209 3.1 22:33:16 10° WNW 22:36:13 68° WNW 22:36:13 68° WNW
Meteor 2-8 Rocket 4.5 22:35:20 10° NNW 22:41:30 78° W 22:44:07 37° S
SJ 16-02 4.2 22:42:37 10° NE 22:43:14 10° NE 22:43:51 10° ENE
Cosmos 1536 Rocket 3.8 22:45:44 42° SW 22:46:58 62° W 22:51:19 10° N
Cosmos 1674 3.2 22:48:20 44° E 22:48:20 44° E 22:51:57 10° NNE
Cosmos 1271 Rocket 3.9 22:49:29 29° WSW 22:50:44 37° WNW 22:54:25 10° N
STARLINK-1201 4.4 22:46:42 10° NW 22:50:45 50° NNE 22:53:33 18° E
STARLINK-60 4.1 22:52:21 15° W 22:54:42 43° NNW 22:57:47 10° NE
Spot 4 4.2 22:53:29 42° SSW 22:54:49 56° W 22:59:36 10° NNW
Cosmos 1354 Rocket 4.2 22:49:51 10° NNW 22:55:03 59° WSW 22:56:35 42° SSW
COSMOS 2455 2.7 22:52:50 34° SSW 22:55:35 81° ESE 23:01:38 10° NE
STARLINK-1206 4.3 22:51:41 10° NW 22:55:45 52° NNE 22:58:21 21° E
Cosmos 883 Rocket 4.4 22:50:24 10° N 22:56:34 85° E 22:58:57 40° SSE
USA 215 3.4 22:52:56 15° ESE 22:58:33 76° NNE 23:05:06 10° NW
STARLINK-1205 4.2 22:56:39 10° NW 23:00:45 55° NNE 23:03:07 23° E
Cosmos 1707 3.9 22:59:44 30° WSW 23:00:46 35° WNW 23:04:23 10° N
Cosmos 2297 Rocket 3.9 22:57:29 10° N 23:02:17 28° NE 23:07:00 10° ESE
Helios 1A 3.5 23:01:35 43° ESE 23:02:28 51° ENE 23:06:32 10° N
Lacrosse 4 Rocket 4.4 23:03:56 10° NNE 23:05:28 12° NE 23:07:00 10° NE
STARLINK-1218 4.1 23:01:39 10° NW 23:05:45 58° NNE 23:07:55 26° E
Cosmos 1174 3.6 23:06:36 63° WNW 23:06:44 64° NW 23:10:28 10° NNE
Cosmos 1726 2.7 23:03:36 10° NNW 23:07:10 46° W 23:07:20 45° WSW
ALOS 2 2.5 23:07:47 59° S 23:08:33 77° WSW 23:12:58 10° NNW
Timation 2 Rocket 4.1 23:03:39 10° NNW 23:09:59 69° ENE 23:12:55 32° SE
STARLINK-1254 4.0 23:06:37 10° WNW 23:10:44 62° NNE 23:12:41 29° E
Cosmos 2058 Rocket 3.9 23:06:41 10° N 23:10:53 40° ENE 23:11:58 34° ESE
COSMOS 2487 3.1 23:07:33 10° NNW 23:10:32 45° W 23:10:32 45° W
CENTAUR R/B 3.7 23:07:06 10° NW 23:14:46 45° WSW 23:18:17 31° SSW
STARLINK-1231 3.9 23:11:35 10° WNW 23:15:43 65° NNE 23:17:27 33° E
Meteor 2-5 Rocket 3.8 23:14:12 43° SSE 23:15:50 61° E 23:21:23 10° NNE
Meteor 1-16 Rocket 4.4 23:10:49 10° NNW 23:16:12 57° W 23:17:49 41° SSW
Cosmos 1867 4.1 23:12:40 10° NW 23:17:48 42° WSW 23:18:45 39° SW
ATLAS 3B R/B 2.7 23:11:24 10° NW 23:18:11 72° WSW 23:21:10 37° SSE
SL-14 R/B 4.1 23:19:11 35° E 23:19:14 35° E 23:22:46 10° NNE
FALCON 9 DEB 3.4 23:20:07 64° NE 23:20:07 64° NE 23:23:07 10° ENE
STARLINK-1379 4.5 23:21:52 34° E 23:21:52 34° E 23:24:16 10° ENE
STARLINK-1232 3.8 23:16:34 10° WNW 23:20:43 69° NNE 23:22:15 37° E
Cosmos 1606 Rocket 3.4 23:16:38 10° N 23:21:00 83° W 23:21:36 65° S
SeaSat 1 3.3 23:16:42 10° NNE 23:21:26 47° NW 23:24:21 22° WSW
Cosmos 1943 Rocket 4.5 23:17:44 10° W 23:21:46 20° NW 23:25:51 10° N
STARLINK-1329 4.4 23:23:14 35° E 23:23:14 35° E 23:25:44 10° ENE
Cosmos 2098 Rocket 4.3 23:20:07 36° SSW 23:23:27 85° W 23:31:00 10° N
STARLINK-29 3.9 23:24:02 41° WNW 23:24:36 47° NNW 23:27:42 10° NE
STARLINK-1362 4.2 23:26:40 39° E 23:26:40 39° E 23:29:19 10° ENE
STARLINK-1208 3.7 23:21:32 10° WNW 23:25:41 74° NNE 23:27:00 41° ESE
ATLAS CENTAUR R/B 3.2 23:26:13 10° NNW 23:28:12 25° NE 23:31:27 10° E
STARLINK-1373 4.0 23:30:05 43° E 23:30:05 43° E 23:32:55 10° ENE
NOSS 3-4 (A) 4.1 23:23:52 11° WSW 23:29:25 52° NW 23:35:42 10° NE
NOSS 3-4 (C) 4.1 23:24:01 12° WSW 23:29:31 52° NW 23:35:49 10° NE
RESURS DK-1 2.2 23:29:48 72° SSW 23:30:13 89° SE 23:34:24 10° NNE
STARLINK-1365 3.9 23:31:11 48° E 23:31:11 48° E 23:34:12 10° ENE
STARLINK-1271 3.6 23:26:32 10° WNW 23:30:42 79° NNE 23:31:49 47° ESE
STARLINK-1390 3.9 23:33:34 48° E 23:33:34 48° E 23:36:33 10° ENE
Cosmos 2084 3.4 23:33:36 64° SSW 23:34:15 81° SE 23:38:45 10° NE
Cosmos 2315 Rocket 4.1 23:28:35 10° NNW 23:34:42 63° W 23:36:59 39° SSW
STARLINK-1154 3.6 23:31:31 10° WNW 23:35:41 84° NNE 23:36:35 53° ESE
BREEZE-M R/B 3.6 23:31:45 25° SW 23:35:47 58° SSE 23:39:42 10° ENE
Cosmos 1626 2.3 23:36:00 59° E 23:36:00 59° E 23:39:39 10° NNE
Cosmos 1340 Rocket 4.3 23:34:25 10° NW 23:37:46 25° W 23:38:06 24° W
ATLAS CENTAUR R/B 2.7 23:35:42 20° WSW 23:38:11 36° NW 23:42:00 10° NNE
Cosmos 2369 Rocket 4.4 23:33:59 10° W 23:38:11 21° NW 23:42:23 10° N
Okean 1-7 Rocket 3.6 23:37:39 59° SSE 23:38:23 73° E 23:42:55 10° NNE
Cosmos 2227 Rocket 3.2 23:34:04 10° NNW 23:39:28 42° NE 23:43:29 17° ESE
STARLINK-1197 3.5 23:36:28 10° WNW 23:40:38 89° NNE 23:41:21 60° ESE
Nadezhda 2 Rocket 4.4 23:39:44 42° S 23:42:00 88° W 23:48:12 10° N
Cosmos 1908 3.9 23:38:52 10° NNW 23:42:27 40° W 23:42:29 40° W
CZ-4 R/B 4.1 23:38:16 10° NNE 23:42:55 51° E 23:43:50 44° SE
STARLINK-1198 3.5 23:41:27 10° WNW 23:45:37 86° SSW 23:46:07 67° SE
Cosmos 1953 4.4 23:43:21 10° NW 23:45:55 17° W 23:46:22 16° W
STARLINK-1199 3.4 23:46:27 10° WNW 23:50:36 80° SSW 23:50:55 73° SSE
Landsat 4 3.7 23:47:05 10° N 23:50:47 67° WNW 23:51:00 65° W
Meteor 2-21 Rocket 4.4 23:50:06 41° S 23:52:24 79° E 23:58:37 10° NNE
STARLINK-1210 3.4 23:51:25 10° WNW 23:55:34 74° SW 23:55:41 74° SSW
